Location: Indian Hills
(32.9760°N, 85.9450°W)
Time: 19:10:08
(UTC+00:00)

ISS - Pass Details

Date: 14 March 2021
Orbit: 418 x 422 km, 51.6° (Epoch: 17 April)

Event Time Altitude Azimuth Distance (km) Brightness Sun altitude
Exits shadow 11:04:40 18° 264° (W) 1,084 -2.3 -11.4°
Maximum altitude 11:05:55 23° 231° (SW) 942 -2.4 -11.1°
Drops below altitude 10° 11:08:37 10° 177° (S) 1,485 -1.0 -10.6°
Sets 11:10:58 0° 162° (SSE) 2,344 0.2 -10.1°
